This is the latest recevied weather packets stored in our database for station/object N5LSN. If no packets are shown the sender has not sent any weather packets the latest 10 day(s).
| Time | Temp. | Humidity | Pressure | Rain* | Wind** | Luminosity | Snow |
|---|---|---|---|---|---|---|---|
| 1777667824 | 20.56° C | 50% | 1015.1 hPa | 0 mm | - | 753 W/m² | - |
| 1777667522 | 20.56° C | 51% | 1015.7 hPa | 0 mm | - | 343 W/m² | - |
| 1777667219 | 20.56° C | 54% | 1015.6 hPa | 0 mm | - | 656 W/m² | - |
| 1777666915 | 20.56° C | 54% | 1015.7 hPa | 0 mm | - | 770 W/m² | - |
| 1777666612 | 20.56° C | 54% | 1016 hPa | 0 mm | - | 848 W/m² | - |
| 1777666309 | 20.56° C | 57% | 1016.3 hPa | 0 mm | - | 417 W/m² | - |
| 1777666005 | 19.44° C | 56% | 1016.2 hPa | 0 mm | - | 621 W/m² | - |
| 1777665703 | 19.44° C | 56% | 1016.1 hPa | 0 mm | - | 457 W/m² | - |
| 1777665400 | 19.44° C | 54% | 1016.3 hPa | 0 mm | - | 477 W/m² | - |
| 1777665096 | 20.56° C | 54% | 1016.5 hPa | 0 mm | - | 667 W/m² | - |
| 1777664792 | 20° C | 55% | 1016.5 hPa | 0 mm | - | 1011 W/m² | - |
| 1777664487 | 20° C | 54% | 1016.7 hPa | 0 mm | - | 609 W/m² | - |
| 1777664185 | 20° C | 56% | 1016.9 hPa | 0 mm | - | 550 W/m² | - |
| 1777663884 | 18.89° C | 57% | 1016.9 hPa | 0 mm | - | 478 W/m² | - |
| 1777663580 | 20° C | 56% | 1017 hPa | 0 mm | - | 726 W/m² | - |
| 1777663277 | 20° C | 55% | 1016.9 hPa | 0 mm | - | 945 W/m² | - |
| 1777662975 | 19.44° C | 55% | 1017.3 hPa | 0 mm | - | 907 W/m² | - |
| 1777662672 | 19.44° C | 57% | 1017.4 hPa | 0 mm | - | 864 W/m² | - |
| 1777662368 | 20° C | 56% | 1017.3 hPa | 0 mm | - | 885 W/m² | - |
| 1777662063 | 19.44° C | 56% | 1017.5 hPa | 0 mm | - | 810 W/m² | - |
| 1777661759 | 18.89° C | 57% | 1017.8 hPa | 0 mm | - | 867 W/m² | - |
| 1777661455 | 18.89° C | 57% | 1017.8 hPa | 0 mm | - | 418 W/m² | - |
| 1777661151 | 18.33° C | 56% | 1017.7 hPa | 0 mm | - | 309 W/m² | - |
| 1777660847 | 18.89° C | 55% | 1017.8 hPa | 0 mm | - | 423 W/m² | - |
| 1777660544 | 18.89° C | 55% | 1018 hPa | 0 mm | - | 387 W/m² | - |
* Rain latest hour (hover to see other rain measurements)
** Current wind speed in m/s (hover to see current wind gust speed)